KB4KY Weather Reports


Display with metric or nautical units.
time (UTC)temp
F
wind
direction
speed
MPH
gust
MPH
rain 1hr
in
rain 24hr
in
rain mn
in
humidity
%
barometer
mb
20260504002503 60 220 0.0 4.0 0.00 0.00 0.00 52 1012.8
20260504002003 61 212 0.0 1.0 0.00 0.00 0.00 52 1012.7
20260504001505 61 210 0.0 0.0 0.00 0.00 0.00 51 1012.7
20260504001002 62 210 0.0 3.0 0.00 0.00 0.00 50 1012.7
20260503235702 62 201 0.0 4.0 0.00 0.00 0.00 49 1012.7
20260503235501 62 212 0.0 2.0 0.00 0.00 0.00 49 1012.7
20260503235001 62 201 0.0 4.0 0.00 0.00 0.00 49 1012.7
20260503234501 62 208 0.0 4.0 0.00 0.00 0.00 47 1012.6
20260503234002 62 191 0.0 9.0 0.00 0.00 0.00 46 1012.7
20260503233502 63 170 0.0 2.0 0.00 0.00 0.00 49 1012.8
20260503233451 64 163 1.0 4.0 0.00 0.00 0.00 48 1012.8
20260503233002 64 163 1.0 4.0 0.00 0.00 0.00 48 1012.8
20260503232911 67 257 0.0 4.0 0.00 0.00 0.00 42 1013.5
20260503232500 64 192 0.0 1.0 0.00 0.00 0.00 47 1013.0
20260503231501 65 223 0.0 1.0 0.00 0.00 0.00 46 1013.2
20260503230959 66 195 0.0 2.0 0.00 0.00 0.00 44 1013.2
20260503230607 66 223 1.0 6.0 0.00 0.00 0.00 43 1013.2
20260503230500 66 223 1.0 6.0 0.00 0.00 0.00 43 1013.2
20260503225958 66 246 0.0 5.0 0.00 0.00 0.00 42 1013.3
20260503225737 67 257 0.0 4.0 0.00 0.00 0.00 42 1013.5
20260503225458 67 257 0.0 4.0 0.00 0.00 0.00 42 1013.5
20260503225036 67 239 1.0 10.0 0.00 0.00 0.00 41 1013.5
20260503224958 67 160 1.0 4.0 0.00 0.00 0.00 41 1013.6
20260503224459 67 229 3.0 7.0 0.00 0.00 0.00 43 1013.6
20260503223958 67 239 1.0 10.0 0.00 0.00 0.00 41 1013.5
20260503223545 67 206 0.0 5.0 0.00 0.00 0.00 43 1013.5
20260503223458 67 206 0.0 5.0 0.00 0.00 0.00 43 1013.5
20260503223035 68 265 2.0 5.0 0.00 0.00 0.00 42 1013.4
20260503222959 68 265 2.0 5.0 0.00 0.00 0.00 42 1013.4
20260503222744 68 158 1.0 3.0 0.00 0.00 0.00 40 1013.5
20260503222458 68 158 1.0 3.0 0.00 0.00 0.00 40 1013.5
20260503221959 68 198 0.0 5.0 0.00 0.00 0.00 38 1013.7
20260503221456 68 275 0.0 5.0 0.00 0.00 0.00 41 1013.9
20260503220957 68 327 0.0 4.0 0.00 0.00 0.00 40 1013.9
20260503220455 68 253 4.0 5.0 0.00 0.00 0.00 41 1014.1
20260503220249 69 271 1.0 6.0 0.00 0.00 0.00 42 1014.4
20260503215956 68 258 1.0 8.0 0.00 0.00 0.00 39 1014.2
20260503215456 68 210 4.0 6.0 0.00 0.00 0.00 39 1014.2
20260503214957 68 210 4.0 6.0 0.00 0.00 0.00 39 1014.2
20260503214454 69 271 1.0 6.0 0.00 0.00 0.00 42 1014.4
20260503213907 68 219 2.0 7.0 0.00 0.00 0.00 42 1013.8
20260503213453 68 104 0.0 10.0 0.00 0.00 0.00 42 1014.1
20260503212953 68 219 2.0 7.0 0.00 0.00 0.00 42 1013.8
20260503212453 68 232 2.0 6.0 0.00 0.00 0.00 43 1014.1
20260503211954 68 282 3.0 12.0 0.00 0.00 0.00 40 1014.1
20260503211452 68 253 2.0 5.0 0.00 0.00 0.00 39 1014.4
20260503211136 68 223 2.0 7.0 0.00 0.00 0.00 41 1014.6
20260503210453 68 174 3.0 8.0 0.00 0.00 0.00 40 1014.5
20260503205954 68 223 2.0 7.0 0.00 0.00 0.00 41 1014.6
20260503205905 68 251 5.0 8.0 0.00 0.00 0.00 41 1014.5
20260503205452 68 251 5.0 8.0 0.00 0.00 0.00 41 1014.5
20260503204952 68 213 2.0 10.0 0.00 0.00 0.00 36 1014.4
20260503204806 68 215 2.0 7.0 0.00 0.00 0.00 38 1014.6
20260503204450 68 215 2.0 7.0 0.00 0.00 0.00 38 1014.6
20260503203950 67 298 0.0 8.0 0.00 0.00 0.00 41 1014.7
20260503203737 66 187 7.0 9.0 0.00 0.00 0.00 43 1014.9
20260503203450 66 97 2.0 9.0 0.00 0.00 0.00 41 1014.9
20260503202950 66 187 7.0 9.0 0.00 0.00 0.00 43 1014.9
20260503202449 67 182 2.0 13.0 0.00 0.00 0.00 41 1014.9
20260503201949 68 230 3.0 12.0 0.00 0.00 0.00 39 1015.1
20260503201449 68 277 1.0 5.0 0.00 0.00 0.00 40 1015.5
20260503200951 68 227 2.0 5.0 0.00 0.00 0.00 40 1015.6
20260503200448 67 206 2.0 7.0 0.00 0.00 0.00 38 1015.8
20260503195949 67 329 0.0 7.0 0.00 0.00 0.00 40 1016.0
20260503195448 67 189 0.0 6.0 0.00 0.00 0.00 41 1016.3
20260503194947 67 216 3.0 5.0 0.00 0.00 0.00 40 1016.4
20260503194447 66 260 0.0 5.0 0.00 0.00 0.00 42 1016.4
20260503193947 66 219 2.0 7.0 0.00 0.00 0.00 45 1016.5
20260503193448 66 195 3.0 8.0 0.00 0.00 0.00 40 1016.7
20260503192946 66 229 5.0 11.0 0.00 0.00 0.00 39 1016.8
20260503192447 65 191 1.0 10.0 0.00 0.00 0.00 39 1016.9
20260503191946 65 265 0.0 6.0 0.00 0.00 0.00 41 1017.0
20260503191445 65 272 2.0 8.0 0.00 0.00 0.00 44 1017.0
20260503190945 64 213 8.0 11.0 0.00 0.00 0.00 40 1017.1
20260503190445 65 219 2.0 8.0 0.00 0.00 0.00 42 1017.3
20260503185946 66 237 3.0 7.0 0.00 0.00 0.00 39 1017.3
20260503185444 66 205 1.0 7.0 0.00 0.00 0.00 42 1017.4
20260503184947 64 240 1.0 4.0 0.00 0.00 0.00 43 1017.5
20260503184446 64 230 0.0 14.0 0.00 0.00 0.00 45 1017.5
20260503183945 63 244 1.0 9.0 0.00 0.00 0.00 37 1017.6
20260503183443 64 232 1.0 5.0 0.00 0.00 0.00 44 1017.9
20260503182943 63 220 3.0 9.0 0.00 0.00 0.00 37 1017.8
20260503182442 63 232 3.0 7.0 0.00 0.00 0.00 41 1017.9
20260503181943 63 205 6.0 15.0 0.00 0.00 0.00 40 1017.9
20260503181444 63 208 0.0 7.0 0.00 0.00 0.00 38 1018.0
20260503180943 63 246 5.0 9.0 0.00 0.00 0.00 42 1018.0
20260503180443 63 241 2.0 6.0 0.00 0.00 0.00 45 1018.2
20260503175941 62 264 3.0 13.0 0.00 0.00 0.00 44 1018.1
20260503175442 61 222 4.0 10.0 0.00 0.00 0.00 38 1018.3
20260503174940 62 164 6.0 8.0 0.00 0.00 0.00 39 1018.5
20260503174442 62 277 3.0 5.0 0.00 0.00 0.00 43 1018.7
20260503173941 60 247 2.0 11.0 0.00 0.00 0.00 48 1018.9
20260503173442 60 170 7.0 9.0 0.00 0.00 0.00 42 1019.0
20260503172941 61 180 5.0 10.0 0.00 0.00 0.00 39 1019.0
20260503172440 62 225 0.0 8.0 0.00 0.00 0.00 37 1019.2
20260503171938 61 209 3.0 9.0 0.00 0.00 0.00 48 1019.2
20260503171603 62 216 2.0 7.0 0.00 0.00 0.00 42 1019.2
20260503171438 62 216 2.0 7.0 0.00 0.00 0.00 42 1019.2
20260503171027 60 205 9.0 11.0 0.00 0.00 0.00 43 1019.4
20260503170938 61 243 2.0 11.0 0.00 0.00 0.00 47 1019.4
20260503170438 60 205 9.0 11.0 0.00 0.00 0.00 43 1019.4
20260503150931 59 174 0.0 5.0 0.00 0.00 0.00 52 1021.2
20260503150432 58 127 5.0 9.0 0.00 0.00 0.00 49 1021.3
20260503130929 51 272 0.0 4.0 0.00 0.00 0.00 69 1022.0
20260503130840 50 210 0.0 5.0 0.00 0.00 0.00 72 1022.1
20260503130425 51 203 1.0 3.0 0.00 0.00 0.00 72 1022.1
20260503110540 36 246 0.0 0.0 0.00 0.00 0.00 96 1021.5
20260503090411 38 246 0.0 0.0 0.00 0.00 0.00 94 1021.0
20260503081415 38 255 1.0 2.0 0.00 0.00 0.00 96 1020.7
20260503080910 38 257 1.0 1.0 0.00 0.00 0.00 96 1020.7
20260503080426 38 253 0.0 1.0 0.00 0.00 0.00 96 1020.6
20260503080408 38 255 1.0 1.0 0.00 0.00 0.00 96 1020.6
20260503072908 39 53 0.0 0.0 0.00 0.00 0.00 94 1020.3
20260503072757 39 53 0.0 0.0 0.00 0.00 0.00 94 1020.2
20260503072406 39 53 0.0 0.0 0.00 0.00 0.00 94 1020.2
20260503072044 39 53 0.0 0.0 0.00 0.00 0.00 93 1020.2
20260503071905 39 53 0.0 0.0 0.00 0.00 0.00 93 1020.2
20260503071406 39 53 0.0 0.0 0.00 0.00 0.00 93 1020.1
20260503071004 39 53 0.0 0.0 0.00 0.00 0.00 92 1020.1
20260503070909 39 53 0.0 0.0 0.00 0.00 0.00 92 1020.1
20260503070554 40 53 0.0 0.0 0.00 0.00 0.00 92 1020.2
20260503070403 40 53 0.0 0.0 0.00 0.00 0.00 92 1020.2
20260503070142 40 53 0.0 0.0 0.00 0.00 0.00 92 1020.1
20260503054902 43 53 0.0 0.0 0.00 0.00 0.00 85 1020.1
20260503054820 43 53 0.0 0.0 0.00 0.00 0.00 84 1020.1
20260503054400 43 53 0.0 0.0 0.00 0.00 0.00 85 1020.1
20260503054031 43 53 0.0 0.0 0.00 0.00 0.00 84 1020.1
20260503053859 43 53 0.0 0.0 0.00 0.00 0.00 84 1020.1
20260503053502 44 53 0.0 0.0 0.00 0.00 0.00 83 1020.2
20260503053404 44 53 0.0 0.0 0.00 0.00 0.00 82 1020.1
20260503053358 44 53 0.0 0.0 0.00 0.00 0.00 83 1020.2
20260503052901 44 53 0.0 0.0 0.00 0.00 0.00 82 1020.1
20260503052358 44 53 0.0 0.0 0.00 0.00 0.00 82 1020.1
20260503051859 45 53 0.0 0.0 0.00 0.00 0.00 80 1020.1
20260503051357 45 53 0.0 0.0 0.00 0.00 0.00 80 1020.1
20260503051158 45 53 0.0 0.0 0.00 0.00 0.00 79 1020.0
20260503050900 45 53 0.0 0.0 0.00 0.00 0.00 79 1020.0
20260503050607 45 53 0.0 0.0 0.00 0.00 0.00 79 1020.0
20260503050357 45 53 0.0 0.0 0.00 0.00 0.00 79 1020.0
20260503045859 45 32 0.0 0.0 0.00 0.00 0.00 79 1020.0
20260503045357 46 32 0.0 0.0 0.00 0.00 0.00 79 1019.9
20260503045023 46 32 0.0 2.0 0.00 0.00 0.00 79 1019.9
20260503044900 46 32 0.0 2.0 0.00 0.00 0.00 79 1019.9
20260503044551 46 5 1.0 2.0 0.00 0.00 0.00 77 1019.8
20260503044355 46 5 1.0 2.0 0.00 0.00 0.00 77 1019.8
20260503043855 46 14 0.0 2.0 0.00 0.00 0.00 77 1019.8
20260503043814 47 8 1.0 3.0 0.00 0.00 0.00 77 1019.8
20260503043354 47 8 1.0 3.0 0.00 0.00 0.00 77 1019.8
20260503042948 47 12 0.0 2.0 0.00 0.00 0.00 77 1019.8
20260503042854 47 12 0.0 2.0 0.00 0.00 0.00 77 1019.8
20260503042356 47 16 0.0 2.0 0.00 0.00 0.00 76 1019.7
20260503041855 47 23 1.0 2.0 0.00 0.00 0.00 76 1019.6
20260503041353 47 2 1.0 2.0 0.00 0.00 0.00 76 1019.6
20260503040859 48 18 1.0 3.0 0.00 0.00 0.00 75 1019.7
20260503040354 48 354 1.0 3.0 0.00 0.00 0.00 75 1019.6
20260503035923 48 7 2.0 3.0 0.00 0.00 0.00 74 1019.5
20260503035852 48 7 2.0 3.0 0.00 0.00 0.00 74 1019.5
20260503035427 48 344 1.0 3.0 0.00 0.00 0.00 75 1019.5
20260503035353 48 344 1.0 3.0 0.00 0.00 0.00 75 1019.5
20260503035025 49 22 0.0 5.0 0.00 0.00 0.00 76 1019.5
20260503034853 49 18 3.0 5.0 0.00 0.00 0.00 74 1019.5
20260503034351 49 30 3.0 4.0 0.00 0.00 0.00 75 1019.5
20260503033852 49 22 0.0 5.0 0.00 0.00 0.00 76 1019.5
20260503033500 49 12 2.0 5.0 0.00 0.00 0.00 77 1019.4
20260503033351 49 12 2.0 5.0 0.00 0.00 0.00 77 1019.4
20260503033031 47 341 0.0 5.0 0.00 0.00 0.00 85 1019.2
20260503032854 48 14 1.0 5.0 0.00 0.00 0.00 78 1019.3
20260503032421 48 36 1.0 7.0 0.00 0.00 0.00 83 1019.3
20260503032352 48 26 2.0 4.0 0.00 0.00 0.00 80 1019.3
20260503031852 48 36 1.0 7.0 0.00 0.00 0.00 83 1019.3
20260503031350 47 341 0.0 5.0 0.00 0.00 0.00 85 1019.2
20260503030939 47 312 0.0 0.0 0.00 0.00 0.00 89 1019.2
20260503030857 47 312 0.0 0.0 0.00 0.00 0.00 89 1019.2
20260503030638 47 312 0.0 0.0 0.00 0.00 0.00 89 1019.2
20260503030351 47 312 0.0 0.0 0.00 0.00 0.00 89 1019.2
20260503025931 47 312 0.0 0.0 0.00 0.00 0.00 89 1019.1
20260503025849 47 312 0.0 0.0 0.00 0.00 0.00 89 1019.1
20260503025448 47 312 0.0 0.0 0.00 0.00 0.00 87 1019.0
20260503025349 47 312 0.0 0.0 0.00 0.00 0.00 87 1019.0
20260503025027 47 312 0.0 0.0 0.00 0.00 0.00 87 1019.0
20260503024848 47 312 0.0 0.0 0.00 0.00 0.00 87 1019.0
20260503024349 47 312 0.0 0.0 0.00 0.00 0.00 86 1018.9
20260503023949 47 312 0.0 0.0 0.00 0.00 0.00 88 1018.6
20260503023850 47 312 0.0 0.0 0.00 0.00 0.00 88 1018.9
20260503023349 47 312 0.0 0.0 0.00 0.00 0.00 89 1018.7
20260503023250 47 312 0.0 0.0 0.00 0.00 0.00 88 1018.6
20260503022849 47 312 0.0 0.0 0.00 0.00 0.00 88 1018.6
20260503022348 47 312 0.0 0.0 0.00 0.00 0.00 87 1018.6
20260503022143 47 312 0.0 0.0 0.00 0.00 0.00 86 1018.6
20260503021848 47 312 0.0 0.0 0.00 0.00 0.00 86 1018.6
20260503021346 47 312 0.0 0.0 0.00 0.00 0.00 85 1018.5
20260503020419 48 312 0.0 0.0 0.00 0.00 0.00 84 1018.5
20260503020414 49 312 0.0 0.0 0.00 0.00 0.00 80 1018.1
20260503020347 48 312 0.0 0.0 0.00 0.00 0.00 84 1018.5
20260503015847 48 312 0.0 0.0 0.00 0.00 0.00 83 1018.3
20260503015347 48 312 0.0 0.0 0.00 0.00 0.00 83 1018.3
20260503015325 49 312 0.0 0.0 0.00 0.00 0.00 80 1018.1
20260503014846 49 312 0.0 0.0 0.00 0.00 0.00 81 1018.2
20260503014347 49 312 0.0 0.0 0.00 0.00 0.00 80 1018.1
20260503013846 49 312 0.0 0.0 0.00 0.00 0.00 78 1018.1
20260503013346 49 312 0.0 0.0 0.00 0.00 0.00 76 1018.0
20260503012845 50 312 0.0 0.0 0.00 0.00 0.00 77 1017.9
20260503012346 50 312 0.0 0.0 0.00 0.00 0.00 77 1017.9
20260503011845 50 312 0.0 0.0 0.00 0.00 0.00 77 1017.8
20260503011343 50 312 0.0 0.0 0.00 0.00 0.00 75 1017.7
20260503010845 51 312 0.0 0.0 0.00 0.00 0.00 75 1017.6
20260503010342 51 312 0.0 0.0 0.00 0.00 0.00 75 1017.6
20260503005844 52 312 0.0 0.0 0.00 0.00 0.00 74 1017.5
20260503005343 52 312 0.0 0.0 0.00 0.00 0.00 71 1017.4
20260503004844 52 312 0.0 0.0 0.00 0.00 0.00 69 1017.4
20260503004804 52 312 0.0 0.0 0.00 0.00 0.00 68 1017.4
20260503004343 52 312 0.0 0.0 0.00 0.00 0.00 68 1017.4
20260503003841 52 312 0.0 0.0 0.00 0.00 0.00 69 1017.3
20260503003341 53 312 0.0 0.0 0.00 0.00 0.00 68 1017.2
20260503002840 53 312 0.0 0.0 0.00 0.00 0.00 66 1017.1